Date String (YYYY-MM-DD hh:mm:ss) UTC,Instrument flags,Ambient pressure (hPa),Sample flow (lpm),Bypass flow (lpm),Sample temperature (°C),Ambient temperature (°C),ASC tube jacket temperature (°C),LED temperature (°C),Box temperature (°C),Sample RH (%),Span deviation,Mass concentration (μg/m³),Mass concentration (μg/m³),Mass concentration (μg/m³)
DateTimeUTC,F1_M11,P_M11,Q1_M11,Q2_M11,T1_M11,T2_M11,T3_M11,T4_M11,T5_M11,U1_M11,ZSPAN_M11,X0_M11,X2_M11,X1_M11
2022-06-13 01:00:00,,0817.5,4.99,0.00,28.9,27.0,00.0,37.7,30.7,23.4,0000.0,0013.63,0004.99,0003.97
2022-06-13 01:01:00,,0817.6,5.00,0.00,28.9,27.2,00.0,37.7,30.7,23.3,0000.0,0013.66,0005.01,0003.97
2022-06-13 01:02:00,,0817.5,5.01,0.00,28.9,27.4,00.0,37.7,30.8,23.3,0000.0,0014.09,0005.03,0003.97
2022-06-13 01:03:00,,0817.5,4.99,0.00,28.9,27.6,00.0,37.7,30.8,23.5,0000.0,0014.28,0005.08,0003.99
2022-06-13 01:04:00,,0817.6,5.01,0.00,28.9,27.8,00.0,37.7,30.9,23.5,0000.0,0014.28,0005.04,0003.98
2022-06-13 01:05:00,,0817.5,4.99,0.00,29.0,27.9,00.0,37.8,31.0,23.7,0000.0,0014.94,0005.05,0003.97
2022-06-13 01:06:00,,0817.5,5.00,0.00,29.0,28.1,00.0,37.8,31.1,23.2,0000.0,0014.80,0005.03,0003.94
2022-06-13 01:07:00,,0817.5,5.00,0.00,29.1,28.2,00.0,37.8,31.1,22.9,0000.0,0015.25,0005.00,0003.92
2022-06-13 01:08:00,,0817.5,5.00,0.00,29.1,28.0,00.0,37.8,31.1,22.5,0000.0,0014.55,0004.98,0003.90
2022-06-13 01:09:00,,0817.4,5.01,0.00,29.0,27.2,00.0,37.7,30.9,22.1,0000.0,0014.47,0004.96,0003.87
2022-06-13 01:10:00,,0817.4,4.99,0.00,29.0,26.9,00.0,37.7,30.8,21.8,0000.0,0014.76,0004.95,0003.85
2022-06-13 01:11:00,,0817.5,5.01,0.00,28.9,27.0,00.0,37.7,30.7,21.4,0000.0,0016.07,0004.92,0003.82
2022-06-13 01:12:00,,0817.5,5.00,0.00,28.9,27.1,00.0,37.7,30.7,21.5,0000.0,0016.44,0004.88,0003.79
2022-06-13 01:13:00,,0817.5,4.99,0.00,28.9,27.2,00.0,37.7,30.7,21.7,0000.0,0015.34,0004.81,0003.76
2022-06-13 01:14:00,,0817.5,5.00,0.00,28.9,27.4,00.0,37.7,30.8,21.5,0000.0,0015.25,0004.75,0003.73
2022-06-13 01:15:00,,0817.5,5.02,0.00,28.9,27.6,00.0,37.7,30.8,21.8,0000.0,0014.93,0004.69,0003.70
2022-06-13 01:16:00,,0817.5,5.01,0.00,29.0,27.8,00.0,37.8,30.9,21.8,0000.0,0014.19,0004.61,0003.67
2022-06-13 01:17:00,,0817.5,5.00,0.00,29.0,27.9,00.0,37.8,31.0,21.9,0000.0,0013.87,0004.62,0003.65
2022-06-13 01:18:00,,0817.6,5.01,0.00,29.0,28.1,00.0,37.8,31.1,22.0,0000.0,0013.57,0004.64,0003.64
2022-06-13 01:19:00,,0817.5,5.00,0.00,29.1,28.2,00.0,37.8,31.1,21.5,0000.0,0013.80,0004.71,0003.63
2022-06-13 01:20:00,,0817.5,5.02,0.00,29.1,27.7,00.0,37.8,31.0,21.5,0000.0,0013.18,0004.70,0003.61
2022-06-13 01:21:00,,0817.5,4.99,0.00,29.0,27.1,00.0,37.7,30.8,21.5,0000.0,0013.07,0004.71,0003.61
2022-06-13 01:22:00,,0817.4,5.01,0.00,29.0,26.9,00.0,37.7,30.7,21.5,0000.0,0012.47,0004.70,0003.61
2022-06-13 01:23:00,,0817.5,4.99,0.00,28.9,26.9,00.0,37.7,30.7,21.8,0000.0,0011.65,0004.70,0003.61
2022-06-13 01:24:00,,0817.5,5.00,0.00,28.9,27.1,00.0,37.7,30.7,22.2,0000.0,0012.31,0004.73,0003.60
2022-06-13 01:25:00,,0817.5,5.01,0.00,28.9,27.2,00.0,37.7,30.7,21.8,0000.0,0012.75,0004.72,0003.60
2022-06-13 01:26:00,,0817.4,5.00,0.00,28.9,27.4,00.0,37.7,30.8,21.6,0000.0,0013.07,0004.77,0003.61
2022-06-13 01:27:00,,0817.5,5.00,0.00,28.9,27.6,00.0,37.8,30.9,22.0,0000.0,0013.25,0004.81,0003.61
2022-06-13 01:28:00,,0817.4,5.00,0.00,29.0,27.8,00.0,37.8,30.9,22.4,0000.0,0014.01,0004.79,0003.62
2022-06-13 01:29:00,,0817.5,5.00,0.00,29.0,28.0,00.0,37.8,31.0,22.3,0000.0,0014.37,0004.76,0003.63
2022-06-13 01:30:00,,0817.5,5.00,0.00,29.0,28.1,00.0,37.8,31.1,22.0,0000.0,0014.86,0004.71,0003.63
2022-06-13 01:31:00,,0817.5,5.00,0.00,29.1,28.1,00.0,37.8,31.1,22.0,0000.0,0015.47,0004.75,0003.64
2022-06-13 01:32:00,,0817.4,4.99,0.00,29.1,27.5,00.0,37.8,30.9,21.8,0000.0,0015.53,0004.78,0003.65
2022-06-13 01:33:00,,0817.5,5.01,0.00,29.0,26.8,00.0,37.7,30.8,21.7,0000.0,0015.66,0004.82,0003.66
2022-06-13 01:34:00,,0817.6,4.99,0.00,28.9,26.8,00.0,37.7,30.7,21.7,0000.0,0016.17,0004.83,0003.68
2022-06-13 01:35:00,,0817.6,5.01,0.00,28.9,26.8,00.0,37.7,30.6,21.8,0000.0,0015.62,0004.83,0003.69
2022-06-13 01:36:00,,0817.5,5.00,0.00,28.8,27.0,00.0,37.7,30.6,21.7,0000.0,0014.63,0004.86,0003.70
2022-06-13 01:37:00,,0817.6,4.99,0.00,28.8,27.2,00.0,37.7,30.7,21.6,0000.0,0014.61,0004.86,0003.71
2022-06-13 01:38:00,,0817.5,4.99,0.00,28.9,27.4,00.0,37.7,30.8,21.8,0000.0,0014.53,0004.88,0003.73
2022-06-13 01:39:00,,0817.6,5.00,0.00,28.9,27.6,00.0,37.7,30.8,21.7,0000.0,0013.96,0004.92,0003.76
2022-06-13 01:40:00,,0817.5,5.01,0.00,28.9,27.8,00.0,37.7,30.9,21.4,0000.0,0013.50,0004.98,0003.80
2022-06-13 01:41:00,,0817.6,5.00,0.00,29.0,27.9,00.0,37.7,31.0,21.3,0000.0,0012.60,0004.99,0003.84
2022-06-13 01:42:00,,0817.7,5.00,0.00,29.0,28.1,00.0,37.8,31.0,21.5,0000.0,0011.96,0005.00,0003.87
2022-06-13 01:43:00,,0817.6,5.00,0.00,29.1,28.2,00.0,37.8,31.1,22.0,0000.0,0011.86,0004.97,0003.88
2022-06-13 01:44:00,,0817.6,4.99,0.00,29.1,28.3,00.0,37.8,31.2,22.9,0000.0,0012.18,0004.97,0003.90
2022-06-13 01:45:00,,0817.6,5.00,0.00,29.1,27.8,00.0,37.8,31.0,21.7,0000.0,0011.77,0004.95,0003.92
2022-06-13 01:46:00,,0817.5,5.01,0.00,29.0,27.1,00.0,37.7,30.8,22.2,0000.0,0012.19,0004.97,0003.94
2022-06-13 01:47:00,,0817.6,4.99,0.00,29.0,26.9,00.0,37.7,30.7,22.7,0000.0,0012.37,0005.02,0003.98
2022-06-13 01:48:00,,0817.6,5.01,0.00,28.9,26.9,00.0,37.7,30.7,23.0,0000.0,0012.39,0005.07,0004.00
2022-06-13 01:49:00,,0817.5,4.99,0.00,28.9,27.0,00.0,37.7,30.7,22.9,0000.0,0012.54,0005.05,0004.01
2022-06-13 01:50:00,,0817.5,5.00,0.00,28.9,27.2,00.0,37.7,30.7,22.8,0000.0,0012.99,0005.09,0004.01
2022-06-13 01:51:00,,0817.5,5.01,0.00,28.9,27.4,00.0,37.7,30.8,23.2,0000.0,0012.72,0005.09,0004.00
2022-06-13 01:52:00,,0817.5,5.00,0.00,28.9,27.6,00.0,37.7,30.9,23.7,0000.0,0013.22,0005.17,0004.00
2022-06-13 01:53:00,,0817.5,5.00,0.00,28.9,27.7,00.0,37.8,30.9,23.2,0000.0,0013.32,0005.18,0003.99
2022-06-13 01:54:00,,0817.5,5.00,0.00,29.0,27.9,00.0,37.8,31.0,22.9,0000.0,0015.26,0005.26,0003.99
2022-06-13 01:55:00,,0817.5,4.99,0.00,29.0,28.0,00.0,37.8,31.0,23.3,0000.0,0015.93,0005.31,0004.00
2022-06-13 01:56:00,,0817.6,5.01,0.00,29.1,28.2,00.0,37.8,31.1,23.0,0000.0,0016.17,0005.32,0003.99
2022-06-13 01:57:00,,0817.6,5.01,0.00,29.1,28.3,00.0,37.9,31.2,23.0,0000.0,0016.77,0005.35,0004.01
2022-06-13 01:58:00,,0817.6,5.00,0.00,29.1,28.1,00.0,37.8,31.1,22.3,0000.0,0016.67,0005.38,0004.01
2022-06-13 01:59:00,,0817.6,5.00,0.00,29.1,27.3,00.0,37.8,30.9,21.7,0000.0,0016.73,0005.40,0004.01
